TimeEDT,TemperatureF,Dew PointF,Humidity,Sea Level PressureIn,VisibilityMPH,Wind Direction,Wind SpeedMPH,Gust SpeedMPH,PrecipitationIn,Events,Conditions,WindDirDegrees,DateUTC
12:36 AM,71.6,69.8,94,30.06,10.0,SSE,2.3,-,N/A,Rain,Light Rain,160,2013-08-23 04:36:00
12:44 AM,71.6,68.0,88,30.06,10.0,SSW,2.3,-,N/A,,Clear,200,2013-08-23 04:44:00
12:58 AM,69.3,67.3,93,30.05,8.0,Calm,Calm,-,0.00,,Clear,0,2013-08-23 04:58:00
1:58 AM,69.8,68.4,95,30.05,8.0,Calm,Calm,-,N/A,,Clear,0,2013-08-23 05:58:00
2:04 AM,69.8,69.8,100,30.06,8.0,Calm,Calm,-,N/A,Rain,Light Rain,0,2013-08-23 06:04:00
2:10 AM,69.8,69.8,100,30.06,7.0,Calm,Calm,-,N/A,,Partly Cloudy,0,2013-08-23 06:10:00
2:58 AM,69.4,68.2,96,30.04,5.0,West,1.2,-,0.00,,Clear,260,2013-08-23 06:58:00
3:58 AM,69.8,68.7,96,30.03,9.0,West,2.3,-,N/A,,Clear,270,2013-08-23 07:58:00
4:58 AM,69.3,68.2,96,30.04,7.0,North,1.2,-,N/A,,Partly Cloudy,350,2013-08-23 08:58:00
5:58 AM,68.2,66.9,96,30.04,3.0,Calm,Calm,-,N/A,,Clear,0,2013-08-23 09:58:00
6:03 AM,68.0,66.2,94,30.05,2.0,North,1.2,-,N/A,,Clear,360,2013-08-23 10:03:00
6:08 AM,68.0,68.0,100,30.06,1.8,North,2.3,-,N/A,,Clear,360,2013-08-23 10:08:00
6:18 AM,68.0,68.0,100,30.06,2.5,North,2.3,-,N/A,,Partly Cloudy,10,2013-08-23 10:18:00
6:23 AM,68.0,68.0,100,30.06,4.0,North,1.2,-,N/A,,Scattered Clouds,360,2013-08-23 10:23:00
6:58 AM,69.4,68.9,98,30.06,3.0,Calm,Calm,-,N/A,,Mostly Cloudy,0,2013-08-23 10:58:00
7:58 AM,69.8,69.4,99,30.07,3.0,NNE,3.5,-,N/A,,Scattered Clouds,20,2013-08-23 11:58:00
8:58 AM,72.5,69.8,91,30.08,4.0,ENE,4.6,-,N/A,,Scattered Clouds,60,2013-08-23 12:58:00
9:58 AM,75.2,68.5,80,30.09,10.0,NE,5.8,-,N/A,,Scattered Clouds,50,2013-08-23 13:58:00
10:58 AM,75.2,68.5,80,30.09,10.0,NE,5.8,-,N/A,,Mostly Cloudy,50,2013-08-23 14:58:00
11:56 AM,75.2,68.5,80,30.09,10.0,NE,5.8,-,N/A,,Mostly Cloudy,50,2013-08-23 15:56:00
12:55 PM,80.6,68.5,67,30.08,10.0,NNW,4.6,-,N/A,,Scattered Clouds,330,2013-08-23 16:55:00
1:59 PM,82.6,69.3,64,30.07,10.0,Variable,4.6,-,N/A,,Scattered Clouds,0,2013-08-23 17:59:00
2:58 PM,84.9,67.5,56,30.05,10.0,NW,4.6,-,N/A,,Scattered Clouds,320,2013-08-23 18:58:00
3:58 PM,86.2,66.9,52,30.04,10.0,North,10.4,-,N/A,,Scattered Clouds,350,2013-08-23 19:58:00
4:58 PM,86.2,65.3,50,30.03,10.0,NE,10.4,-,N/A,,Partly Cloudy,50,2013-08-23 20:58:00
5:58 PM,85.3,65.1,51,30.04,10.0,North,5.8,-,N/A,,Partly Cloudy,10,2013-08-23 21:58:00
6:58 PM,84.2,66.2,55,30.04,10.0,North,5.8,-,N/A,,Clear,350,2013-08-23 22:58:00
7:58 PM,81.7,67.5,62,30.05,10.0,North,2.3,-,N/A,,Scattered Clouds,360,2013-08-23 23:58:00
8:58 PM,74.7,67.8,79,30.06,10.0,North,3.5,-,N/A,,Clear,360,2013-08-24 00:58:00
9:58 PM,75.6,66.2,73,30.09,10.0,NE,4.6,-,N/A,,Clear,40,2013-08-24 01:58:00
10:58 PM,73.9,66.2,77,30.11,10.0,NNE,5.8,-,N/A,,Clear,30,2013-08-24 02:58:00
11:58 PM,73.0,65.7,78,30.12,10.0,NNE,4.6,-,N/A,,Clear,20,2013-08-24 03:58:00